owner,sensor,date,latitude,longitude,vertical_datum,mass_concentration_of_oxygen_in_sea_water,qcFlag 
SCCF RECON,ioos:station:SCCF:12:1,2012-02-01T00:00:00Z,26.4966,-82.1479,2.4,-9999.0,1111122 
SCCF RECON,ioos:station:SCCF:12:1,2012-02-01T01:00:00Z,26.4966,-82.1479,2.366,-9999.0,1111122 
SCCF RECON,ioos:station:SCCF:12:1,2012-02-01T02:00:00Z,26.4966,-82.1479,2.31,-9999.0,1111122 
SCCF RECON,ioos:station:SCCF:12:1,2012-02-01T03:00:00Z,26.4966,-82.1479,2.234,-9999.0,1111122 
SCCF RECON,ioos:station:SCCF:12:1,2012-02-01T04:00:00Z,26.4966,-82.1479,2.141,-9999.0,1111122 
SCCF RECON,ioos:station:SCCF:12:1,2012-02-01T05:00:00Z,26.4966,-82.1479,2.047,-9999.0,1111122 
SCCF RECON,ioos:station:SCCF:12:1,2012-02-01T06:00:00Z,26.4966,-82.1479,1.962,-9999.0,1111122 
SCCF RECON,ioos:station:SCCF:12:1,2012-02-01T07:00:00Z,26.4966,-82.1479,1.887,-9999.0,1111122 
SCCF RECON,ioos:station:SCCF:12:1,2012-02-01T08:00:00Z,26.4966,-82.1479,1.84,-9999.0,1111122 
SCCF RECON,ioos:station:SCCF:12:1,2012-02-01T09:00:00Z,26.4966,-82.1479,1.87,-9999.0,1111122 
SCCF RECON,ioos:station:SCCF:12:1,2012-02-01T10:00:00Z,26.4966,-82.1479,1.963,-9999.0,1111122 
SCCF RECON,ioos:station:SCCF:12:1,2012-02-01T11:00:00Z,26.4966,-82.1479,2.068,-9999.0,1111122 
SCCF RECON,ioos:station:SCCF:12:1,2012-02-01T12:00:00Z,26.4966,-82.1479,2.15,-9999.0,1111122 
SCCF RECON,ioos:station:SCCF:12:1,2012-02-01T13:00:00Z,26.4966,-82.1479,2.2,-9999.0,1111122 
SCCF RECON,ioos:station:SCCF:12:1,2012-02-01T14:00:00Z,26.4966,-82.1479,2.23,-9999.0,1111122 
SCCF RECON,ioos:station:SCCF:12:1,2012-02-01T15:00:00Z,26.4966,-82.1479,2.239,-9999.0,1111122 
SCCF RECON,ioos:station:SCCF:12:1,2012-02-01T16:00:00Z,26.4966,-82.1479,2.231,-9999.0,1111122 
SCCF RECON,ioos:station:SCCF:12:1,2012-02-01T17:00:00Z,26.4966,-82.1479,2.235,-9999.0,1111122 
SCCF RECON,ioos:station:SCCF:12:1,2012-02-01T18:00:00Z,26.4966,-82.1479,2.24,-9999.0,1111122 
SCCF RECON,ioos:station:SCCF:12:1,2012-02-01T19:00:00Z,26.4966,-82.1479,2.25,-9999.0,1111122 
SCCF RECON,ioos:station:SCCF:12:1,2012-02-01T20:00:00Z,26.4966,-82.1479,2.266,-9999.0,1111122 
SCCF RECON,ioos:station:SCCF:12:1,2012-02-01T21:00:00Z,26.4966,-82.1479,2.31,-9999.0,1111122 
SCCF RECON,ioos:station:SCCF:12:1,2012-02-01T22:00:00Z,26.4966,-82.1479,2.37,-9999.0,1111122 
SCCF RECON,ioos:station:SCCF:12:1,2012-02-01T23:00:00Z,26.4966,-82.1479,2.41,-9999.0,1111122 
SCCF RECON,ioos:station:SCCF:12:1,2012-02-02T00:00:00Z,26.4966,-82.1479,2.41,-9999.0,1111122 
SCCF RECON,ioos:station:SCCF:12:1,2012-02-02T01:00:00Z,26.4966,-82.1479,2.39,-9999.0,1111122 
SCCF RECON,ioos:station:SCCF:12:1,2012-02-02T02:00:00Z,26.4966,-82.1479,2.34,-9999.0,1111122 
SCCF RECON,ioos:station:SCCF:12:1,2012-02-02T03:00:00Z,26.4966,-82.1479,2.287,-9999.0,1111122 
SCCF RECON,ioos:station:SCCF:12:1,2012-02-02T04:00:00Z,26.4966,-82.1479,2.22,-9999.0,1111122 
SCCF RECON,ioos:station:SCCF:12:1,2012-02-02T05:00:00Z,26.4966,-82.1479,2.135,-9999.0,1111122 
SCCF RECON,ioos:station:SCCF:12:1,2012-02-02T06:00:00Z,26.4966,-82.1479,2.03,-9999.0,1111122 
SCCF RECON,ioos:station:SCCF:12:1,2012-02-02T07:00:00Z,26.4966,-82.1479,1.94,-9999.0,1111122 
SCCF RECON,ioos:station:SCCF:12:1,2012-02-02T08:00:00Z,26.4966,-82.1479,1.856,-9999.0,1111122 
SCCF RECON,ioos:station:SCCF:12:1,2012-02-02T09:00:00Z,26.4966,-82.1479,1.801,-9999.0,1111122 
SCCF RECON,ioos:station:SCCF:12:1,2012-02-02T10:00:00Z,26.4966,-82.1479,1.813,-9999.0,1111122 
SCCF RECON,ioos:station:SCCF:12:1,2012-02-02T11:00:00Z,26.4966,-82.1479,1.9,-9999.0,1111122 
SCCF RECON,ioos:station:SCCF:12:1,2012-02-02T12:00:00Z,26.4966,-82.1479,2.0,-9999.0,1111122 
SCCF RECON,ioos:station:SCCF:12:1,2012-02-02T13:00:00Z,26.4966,-82.1479,2.081,-9999.0,1111122 
SCCF RECON,ioos:station:SCCF:12:1,2012-02-02T14:00:00Z,26.4966,-82.1479,2.14,-9999.0,1111122 
SCCF RECON,ioos:station:SCCF:12:1,2012-02-02T15:00:00Z,26.4966,-82.1479,2.195,-9999.0,1111122 
SCCF RECON,ioos:station:SCCF:12:1,2012-02-02T16:00:00Z,26.4966,-82.1479,2.231,-9999.0,1111122 
SCCF RECON,ioos:station:SCCF:12:1,2012-02-02T17:00:00Z,26.4966,-82.1479,2.23,-9999.0,1111122 
SCCF RECON,ioos:station:SCCF:12:1,2012-02-02T18:00:00Z,26.4966,-82.1479,2.219,-9999.0,1111122 
SCCF RECON,ioos:station:SCCF:12:1,2012-02-02T19:00:00Z,26.4966,-82.1479,2.173,-9999.0,1111122 
SCCF RECON,ioos:station:SCCF:12:1,2012-02-02T20:00:00Z,26.4966,-82.1479,2.18,-9999.0,1111122 
SCCF RECON,ioos:station:SCCF:12:1,2012-02-02T21:00:00Z,26.4966,-82.1479,2.209,-9999.0,1111122 
SCCF RECON,ioos:station:SCCF:12:1,2012-02-02T22:00:00Z,26.4966,-82.1479,2.26,-9999.0,1111122 
SCCF RECON,ioos:station:SCCF:12:1,2012-02-02T23:00:00Z,26.4966,-82.1479,2.317,-9999.0,1111122 
SCCF RECON,ioos:station:SCCF:12:1,2012-02-03T00:00:00Z,26.4966,-82.1479,2.37,-9999.0,1111122 
SCCF RECON,ioos:station:SCCF:12:1,2012-02-03T01:00:00Z,26.4966,-82.1479,2.41,-9999.0,1111122 
SCCF RECON,ioos:station:SCCF:12:1,2012-02-03T02:00:00Z,26.4966,-82.1479,2.41,-9999.0,1111122 
SCCF RECON,ioos:station:SCCF:12:1,2012-02-03T03:00:00Z,26.4966,-82.1479,2.357,-9999.0,1111122 
SCCF RECON,ioos:station:SCCF:12:1,2012-02-03T04:00:00Z,26.4966,-82.1479,2.28,-9999.0,1111122 
SCCF RECON,ioos:station:SCCF:12:1,2012-02-03T05:00:00Z,26.4966,-82.1479,2.175,-9999.0,1111122 
SCCF RECON,ioos:station:SCCF:12:1,2012-02-03T06:00:00Z,26.4966,-82.1479,2.06,-9999.0,1111122 
SCCF RECON,ioos:station:SCCF:12:1,2012-02-03T07:00:00Z,26.4966,-82.1479,1.96,-9999.0,1111122 
SCCF RECON,ioos:station:SCCF:12:1,2012-02-03T08:00:00Z,26.4966,-82.1479,1.86,-9999.0,1111122 
SCCF RECON,ioos:station:SCCF:12:1,2012-02-03T09:00:00Z,26.4966,-82.1479,1.78,-9999.0,1111122 
SCCF RECON,ioos:station:SCCF:12:1,2012-02-03T10:00:00Z,26.4966,-82.1479,1.74,-9999.0,1111122 
SCCF RECON,ioos:station:SCCF:12:1,2012-02-03T11:00:00Z,26.4966,-82.1479,1.78,-9999.0,1111122 
SCCF RECON,ioos:station:SCCF:12:1,2012-02-03T12:00:00Z,26.4966,-82.1479,1.9,-9999.0,1111122 
SCCF RECON,ioos:station:SCCF:12:1,2012-02-03T13:00:00Z,26.4966,-82.1479,2.02,-9999.0,1111122 
SCCF RECON,ioos:station:SCCF:12:1,2012-02-03T14:00:00Z,26.4966,-82.1479,2.116,-9999.0,1111122 
SCCF RECON,ioos:station:SCCF:12:1,2012-02-03T15:00:00Z,26.4966,-82.1479,2.191,-9999.0,1111122 
SCCF RECON,ioos:station:SCCF:12:1,2012-02-03T16:00:00Z,26.4966,-82.1479,2.228,-9999.0,1111122 
SCCF RECON,ioos:station:SCCF:12:1,2012-02-03T17:00:00Z,26.4966,-82.1479,2.258,-9999.0,1111122 
SCCF RECON,ioos:station:SCCF:12:1,2012-02-03T18:00:00Z,26.4966,-82.1479,2.262,-9999.0,1111122 
SCCF RECON,ioos:station:SCCF:12:1,2012-02-03T19:00:00Z,26.4966,-82.1479,2.22,-9999.0,1111122 
SCCF RECON,ioos:station:SCCF:12:1,2012-02-03T20:00:00Z,26.4966,-82.1479,2.195,-9999.0,1111122 
SCCF RECON,ioos:station:SCCF:12:1,2012-02-03T21:00:00Z,26.4966,-82.1479,2.229,-9999.0,1111122 
SCCF RECON,ioos:station:SCCF:12:1,2012-02-03T22:00:00Z,26.4966,-82.1479,2.281,-9999.0,1111122 
SCCF RECON,ioos:station:SCCF:12:1,2012-02-03T23:00:00Z,26.4966,-82.1479,2.35,-9999.0,1111122 
SCCF RECON,ioos:station:SCCF:12:1,2012-02-04T00:00:00Z,26.4966,-82.1479,2.429,-9999.0,1111122 
SCCF RECON,ioos:station:SCCF:12:1,2012-02-04T01:00:00Z,26.4966,-82.1479,2.47,-9999.0,1111122 
SCCF RECON,ioos:station:SCCF:12:1,2012-02-04T02:00:00Z,26.4966,-82.1479,2.47,-9999.0,1111122 
SCCF RECON,ioos:station:SCCF:12:1,2012-02-04T03:00:00Z,26.4966,-82.1479,2.446,-9999.0,1111122 
SCCF RECON,ioos:station:SCCF:12:1,2012-02-04T04:00:00Z,26.4966,-82.1479,2.411,-9999.0,1111122 
SCCF RECON,ioos:station:SCCF:12:1,2012-02-04T05:00:00Z,26.4966,-82.1479,2.332,-9999.0,1111122 
SCCF RECON,ioos:station:SCCF:12:1,2012-02-04T06:00:00Z,26.4966,-82.1479,2.22,-9999.0,1111122 
SCCF RECON,ioos:station:SCCF:12:1,2012-02-04T07:00:00Z,26.4966,-82.1479,2.085,-9999.0,1111122 
SCCF RECON,ioos:station:SCCF:12:1,2012-02-04T08:00:00Z,26.4966,-82.1479,1.956,-9999.0,1111122 
SCCF RECON,ioos:station:SCCF:12:1,2012-02-04T09:00:00Z,26.4966,-82.1479,1.841,-9999.0,1111122 
SCCF RECON,ioos:station:SCCF:12:1,2012-02-04T10:00:00Z,26.4966,-82.1479,1.75,-9999.0,1111122 
SCCF RECON,ioos:station:SCCF:12:1,2012-02-04T11:00:00Z,26.4966,-82.1479,1.692,-9999.0,1111122 
SCCF RECON,ioos:station:SCCF:12:1,2012-02-04T12:00:00Z,26.4966,-82.1479,1.761,-9999.0,1111122 
SCCF RECON,ioos:station:SCCF:12:1,2012-02-04T13:00:00Z,26.4966,-82.1479,1.911,-9999.0,1111122 
SCCF RECON,ioos:station:SCCF:12:1,2012-02-04T14:00:00Z,26.4966,-82.1479,2.027,-9999.0,1111122 
SCCF RECON,ioos:station:SCCF:12:1,2012-02-04T15:00:00Z,26.4966,-82.1479,2.115,-9999.0,1111122 
SCCF RECON,ioos:station:SCCF:12:1,2012-02-04T16:00:00Z,26.4966,-82.1479,2.17,-9999.0,1111122 
SCCF RECON,ioos:station:SCCF:12:1,2012-02-04T17:00:00Z,26.4966,-82.1479,2.208,-9999.0,1111122 
SCCF RECON,ioos:station:SCCF:12:1,2012-02-04T18:00:00Z,26.4966,-82.1479,2.202,-9999.0,1111122 
SCCF RECON,ioos:station:SCCF:12:1,2012-02-04T19:00:00Z,26.4966,-82.1479,2.18,-9999.0,1111122 
SCCF RECON,ioos:station:SCCF:12:1,2012-02-04T20:00:00Z,26.4966,-82.1479,2.158,-9999.0,1111122 
SCCF RECON,ioos:station:SCCF:12:1,2012-02-04T21:00:00Z,26.4966,-82.1479,2.171,-9999.0,1111122 
SCCF RECON,ioos:station:SCCF:12:1,2012-02-04T22:00:00Z,26.4966,-82.1479,2.19,-9999.0,1111122 
SCCF RECON,ioos:station:SCCF:12:1,2012-02-04T23:00:00Z,26.4966,-82.1479,2.251,-9999.0,1111122 
SCCF RECON,ioos:station:SCCF:12:1,2012-02-05T00:00:00Z,26.4966,-82.1479,2.32,-9999.0,1111122 
SCCF RECON,ioos:station:SCCF:12:1,2012-02-05T01:00:00Z,26.4966,-82.1479,2.41,-9999.0,1111122 
SCCF RECON,ioos:station:SCCF:12:1,2012-02-05T02:00:00Z,26.4966,-82.1479,2.481,-9999.0,1111122 
SCCF RECON,ioos:station:SCCF:12:1,2012-02-05T03:00:00Z,26.4966,-82.1479,2.529,-9999.0,1111122 
SCCF RECON,ioos:station:SCCF:12:1,2012-02-05T04:00:00Z,26.4966,-82.1479,2.508,-9999.0,1111122 
SCCF RECON,ioos:station:SCCF:12:1,2012-02-05T05:00:00Z,26.4966,-82.1479,2.44,-9999.0,1111122 
SCCF RECON,ioos:station:SCCF:12:1,2012-02-05T06:00:00Z,26.4966,-82.1479,2.331,-9999.0,1111122 
SCCF RECON,ioos:station:SCCF:12:1,2012-02-05T07:00:00Z,26.4966,-82.1479,2.189,-9999.0,1111122 
SCCF RECON,ioos:station:SCCF:12:1,2012-02-05T08:00:00Z,26.4966,-82.1479,2.046,-9999.0,1111122 
SCCF RECON,ioos:station:SCCF:12:1,2012-02-05T09:00:00Z,26.4966,-82.1479,1.92,-9999.0,1111122 
SCCF RECON,ioos:station:SCCF:12:1,2012-02-05T10:00:00Z,26.4966,-82.1479,1.81,-9999.0,1111122 
SCCF RECON,ioos:station:SCCF:12:1,2012-02-05T11:00:00Z,26.4966,-82.1479,1.73,-9999.0,1111122 
SCCF RECON,ioos:station:SCCF:12:1,2012-02-05T12:00:00Z,26.4966,-82.1479,1.72,-9999.0,1111122 
SCCF RECON,ioos:station:SCCF:12:1,2012-02-05T13:00:00Z,26.4966,-82.1479,1.839,-9999.0,1111122 
SCCF RECON,ioos:station:SCCF:12:1,2012-02-05T14:00:00Z,26.4966,-82.1479,1.985,-9999.0,1111122 
SCCF RECON,ioos:station:SCCF:12:1,2012-02-05T15:00:00Z,26.4966,-82.1479,2.12,-9999.0,1111122 
SCCF RECON,ioos:station:SCCF:12:1,2012-02-05T16:00:00Z,26.4966,-82.1479,2.22,-9999.0,1111122 
SCCF RECON,ioos:station:SCCF:12:1,2012-02-05T17:00:00Z,26.4966,-82.1479,2.283,-9999.0,1111122 
SCCF RECON,ioos:station:SCCF:12:1,2012-02-05T18:00:00Z,26.4966,-82.1479,2.314,-9999.0,1111122 
SCCF RECON,ioos:station:SCCF:12:1,2012-02-05T19:00:00Z,26.4966,-82.1479,2.289,-9999.0,1111122 
SCCF RECON,ioos:station:SCCF:12:1,2012-02-05T20:00:00Z,26.4966,-82.1479,2.22,-9999.0,1111122 
SCCF RECON,ioos:station:SCCF:12:1,2012-02-05T21:00:00Z,26.4966,-82.1479,2.171,-9999.0,1111122 
SCCF RECON,ioos:station:SCCF:12:1,2012-02-05T22:00:00Z,26.4966,-82.1479,2.18,-9999.0,1111122 
SCCF RECON,ioos:station:SCCF:12:1,2012-02-05T23:00:00Z,26.4966,-82.1479,2.22,-9999.0,1111122 
SCCF RECON,ioos:station:SCCF:12:1,2012-02-06T00:00:00Z,26.4966,-82.1479,2.299,-9999.0,1111122 
SCCF RECON,ioos:station:SCCF:12:1,2012-02-06T01:00:00Z,26.4966,-82.1479,2.37,-9999.0,1111122 
SCCF RECON,ioos:station:SCCF:12:1,2012-02-06T02:00:00Z,26.4966,-82.1479,2.46,-9999.0,1111122 
SCCF RECON,ioos:station:SCCF:12:1,2012-02-06T03:00:00Z,26.4966,-82.1479,2.568,-9999.0,1111122 
SCCF RECON,ioos:station:SCCF:12:1,2012-02-06T04:00:00Z,26.4966,-82.1479,2.602,-9999.0,1111122 
SCCF RECON,ioos:station:SCCF:12:1,2012-02-06T05:00:00Z,26.4966,-82.1479,2.58,-9999.0,1111122 
SCCF RECON,ioos:station:SCCF:12:1,2012-02-06T06:00:00Z,26.4966,-82.1479,2.492,-9999.0,1111122 
SCCF RECON,ioos:station:SCCF:12:1,2012-02-06T07:00:00Z,26.4966,-82.1479,2.34,-9999.0,1111122 
SCCF RECON,ioos:station:SCCF:12:1,2012-02-06T08:00:00Z,26.4966,-82.1479,2.18,-9999.0,1111122 
SCCF RECON,ioos:station:SCCF:12:1,2012-02-06T09:00:00Z,26.4966,-82.1479,2.03,-9999.0,1111122 
SCCF RECON,ioos:station:SCCF:12:1,2012-02-06T10:00:00Z,26.4966,-82.1479,1.9,-9999.0,1111122 
SCCF RECON,ioos:station:SCCF:12:1,2012-02-06T11:00:00Z,26.4966,-82.1479,1.79,-9999.0,1111122 
SCCF RECON,ioos:station:SCCF:12:1,2012-02-06T12:00:00Z,26.4966,-82.1479,1.717,-9999.0,1111122 
SCCF RECON,ioos:station:SCCF:12:1,2012-02-06T13:00:00Z,26.4966,-82.1479,1.75,-9999.0,1111122 
SCCF RECON,ioos:station:SCCF:12:1,2012-02-06T14:00:00Z,26.4966,-82.1479,1.93,-9999.0,1111122 
SCCF RECON,ioos:station:SCCF:12:1,2012-02-06T15:00:00Z,26.4966,-82.1479,2.091,-9999.0,1111122 
SCCF RECON,ioos:station:SCCF:12:1,2012-02-06T16:00:00Z,26.4966,-82.1479,2.218,-9999.0,1111122 
SCCF RECON,ioos:station:SCCF:12:1,2012-02-06T17:00:00Z,26.4966,-82.1479,2.29,-9999.0,1111122 
SCCF RECON,ioos:station:SCCF:12:1,2012-02-06T18:00:00Z,26.4966,-82.1479,2.321,-9999.0,1111122 
SCCF RECON,ioos:station:SCCF:12:1,2012-02-06T19:00:00Z,26.4966,-82.1479,2.289,-9999.0,1111122 
SCCF RECON,ioos:station:SCCF:12:1,2012-02-06T20:00:00Z,26.4966,-82.1479,2.194,-9999.0,1111122 
SCCF RECON,ioos:station:SCCF:12:1,2012-02-06T21:00:00Z,26.4966,-82.1479,2.11,-9999.0,1111122 
SCCF RECON,ioos:station:SCCF:12:1,2012-02-06T22:00:00Z,26.4966,-82.1479,2.09,-9999.0,1111122 
SCCF RECON,ioos:station:SCCF:12:1,2012-02-06T23:00:00Z,26.4966,-82.1479,2.098,-9999.0,1111122 
SCCF RECON,ioos:station:SCCF:12:1,2012-02-07T00:00:00Z,26.4966,-82.1479,2.14,-9999.0,1111122 
SCCF RECON,ioos:station:SCCF:12:1,2012-02-07T01:00:00Z,26.4966,-82.1479,2.22,-9999.0,1111122 
SCCF RECON,ioos:station:SCCF:12:1,2012-02-07T02:00:00Z,26.4966,-82.1479,2.34,-9999.0,1111122 
SCCF RECON,ioos:station:SCCF:12:1,2012-02-07T03:00:00Z,26.4966,-82.1479,2.45,-9999.0,1111122 
SCCF RECON,ioos:station:SCCF:12:1,2012-02-07T04:00:00Z,26.4966,-82.1479,2.53,-9999.0,1111122 
SCCF RECON,ioos:station:SCCF:12:1,2012-02-07T05:00:00Z,26.4966,-82.1479,2.57,-9999.0,1111122 
SCCF RECON,ioos:station:SCCF:12:1,2012-02-07T06:00:00Z,26.4966,-82.1479,2.53,-9999.0,1111122 
SCCF RECON,ioos:station:SCCF:12:1,2012-02-07T07:00:00Z,26.4966,-82.1479,2.43,-9999.0,1111122 
SCCF RECON,ioos:station:SCCF:12:1,2012-02-07T08:00:00Z,26.4966,-82.1479,2.28,-9999.0,1111122 
SCCF RECON,ioos:station:SCCF:12:1,2012-02-07T09:00:00Z,26.4966,-82.1479,2.14,-9999.0,1111122 
SCCF RECON,ioos:station:SCCF:12:1,2012-02-07T10:00:00Z,26.4966,-82.1479,2.0,-9999.0,1111122 
SCCF RECON,ioos:station:SCCF:12:1,2012-02-07T11:00:00Z,26.4966,-82.1479,1.87,-9999.0,1111122 
SCCF RECON,ioos:station:SCCF:12:1,2012-02-07T12:00:00Z,26.4966,-82.1479,1.76,-9999.0,1111122 
SCCF RECON,ioos:station:SCCF:12:1,2012-02-07T13:00:00Z,26.4966,-82.1479,1.73,-9999.0,1111122 
SCCF RECON,ioos:station:SCCF:12:1,2012-02-07T14:00:00Z,26.4966,-82.1479,1.844,-9999.0,1111122 
SCCF RECON,ioos:station:SCCF:12:1,2012-02-07T15:00:00Z,26.4966,-82.1479,2.04,-9999.0,1111122 
SCCF RECON,ioos:station:SCCF:12:1,2012-02-07T16:00:00Z,26.4966,-82.1479,2.19,-9999.0,1111122 
SCCF RECON,ioos:station:SCCF:12:1,2012-02-07T17:00:00Z,26.4966,-82.1479,2.304,-9999.0,1111122 
SCCF RECON,ioos:station:SCCF:12:1,2012-02-07T18:00:00Z,26.4966,-82.1479,2.375,-9999.0,1111122 
SCCF RECON,ioos:station:SCCF:12:1,2012-02-07T19:00:00Z,26.4966,-82.1479,2.363,-9999.0,1111122 
SCCF RECON,ioos:station:SCCF:12:1,2012-02-07T20:00:00Z,26.4966,-82.1479,2.291,-9999.0,1111122 
SCCF RECON,ioos:station:SCCF:12:1,2012-02-07T21:00:00Z,26.4966,-82.1479,2.187,-9999.0,1111122 
SCCF RECON,ioos:station:SCCF:12:1,2012-02-07T22:00:00Z,26.4966,-82.1479,2.115,-9999.0,1111122 
SCCF RECON,ioos:station:SCCF:12:1,2012-02-07T23:00:00Z,26.4966,-82.1479,2.077,-9999.0,1111122 
SCCF RECON,ioos:station:SCCF:12:1,2012-02-08T00:00:00Z,26.4966,-82.1479,2.039,-9999.0,1111122 
SCCF RECON,ioos:station:SCCF:12:1,2012-02-08T01:00:00Z,26.4966,-82.1479,2.079,-9999.0,1111122 
SCCF RECON,ioos:station:SCCF:12:1,2012-02-08T02:00:00Z,26.4966,-82.1479,2.173,-9999.0,1111122 
SCCF RECON,ioos:station:SCCF:12:1,2012-02-08T03:00:00Z,26.4966,-82.1479,2.348,-9999.0,1111122 
SCCF RECON,ioos:station:SCCF:12:1,2012-02-08T04:00:00Z,26.4966,-82.1479,2.479,-9999.0,1111122 
SCCF RECON,ioos:station:SCCF:12:1,2012-02-08T05:00:00Z,26.4966,-82.1479,2.547,-9999.0,1111122 
SCCF RECON,ioos:station:SCCF:12:1,2012-02-08T06:00:00Z,26.4966,-82.1479,2.556,-9999.0,1111122 
SCCF RECON,ioos:station:SCCF:12:1,2012-02-08T07:00:00Z,26.4966,-82.1479,2.479,-9999.0,1111122 
SCCF RECON,ioos:station:SCCF:12:1,2012-02-08T08:00:00Z,26.4966,-82.1479,2.345,-9999.0,1111122 
SCCF RECON,ioos:station:SCCF:12:1,2012-02-08T09:00:00Z,26.4966,-82.1479,2.193,-9999.0,1111122 
SCCF RECON,ioos:station:SCCF:12:1,2012-02-08T10:00:00Z,26.4966,-82.1479,2.046,-9999.0,1111122 
SCCF RECON,ioos:station:SCCF:12:1,2012-02-08T11:00:00Z,26.4966,-82.1479,1.925,-9999.0,1111122 
SCCF RECON,ioos:station:SCCF:12:1,2012-02-08T12:00:00Z,26.4966,-82.1479,1.814,-9999.0,1111122 
SCCF RECON,ioos:station:SCCF:12:1,2012-02-08T13:00:00Z,26.4966,-82.1479,1.738,-9999.0,1111122 
SCCF RECON,ioos:station:SCCF:12:1,2012-02-08T14:00:00Z,26.4966,-82.1479,1.743,-9999.0,1111122 
SCCF RECON,ioos:station:SCCF:12:1,2012-02-08T15:00:00Z,26.4966,-82.1479,1.91,-9999.0,1111122 
SCCF RECON,ioos:station:SCCF:12:1,2012-02-08T16:00:00Z,26.4966,-82.1479,2.107,-9999.0,1111122 
SCCF RECON,ioos:station:SCCF:12:1,2012-02-08T17:00:00Z,26.4966,-82.1479,2.245,-9999.0,1111122 
SCCF RECON,ioos:station:SCCF:12:1,2012-02-08T18:00:00Z,26.4966,-82.1479,2.327,-9999.0,1111122 
SCCF RECON,ioos:station:SCCF:12:1,2012-02-08T19:00:00Z,26.4966,-82.1479,2.349,-9999.0,1111122 
SCCF RECON,ioos:station:SCCF:12:1,2012-02-08T20:00:00Z,26.4966,-82.1479,2.28,-9999.0,1111122 
SCCF RECON,ioos:station:SCCF:12:1,2012-02-08T21:00:00Z,26.4966,-82.1479,2.183,-9999.0,1111122 
SCCF RECON,ioos:station:SCCF:12:1,2012-02-08T22:00:00Z,26.4966,-82.1479,2.1,-9999.0,1111122 
SCCF RECON,ioos:station:SCCF:12:1,2012-02-08T23:00:00Z,26.4966,-82.1479,2.028,-9999.0,1111122 
SCCF RECON,ioos:station:SCCF:12:1,2012-02-09T00:00:00Z,26.4966,-82.1479,1.974,-9999.0,1111122 
SCCF RECON,ioos:station:SCCF:12:1,2012-02-09T01:00:00Z,26.4966,-82.1479,1.954,-9999.0,1111122 
SCCF RECON,ioos:station:SCCF:12:1,2012-02-09T02:00:00Z,26.4966,-82.1479,2.005,-9999.0,1111122 
SCCF RECON,ioos:station:SCCF:12:1,2012-02-09T03:00:00Z,26.4966,-82.1479,2.155,-9999.0,1111122 
SCCF RECON,ioos:station:SCCF:12:1,2012-02-09T04:00:00Z,26.4966,-82.1479,2.336,-9999.0,1111122 
SCCF RECON,ioos:station:SCCF:12:1,2012-02-09T05:00:00Z,26.4966,-82.1479,2.45,-9999.0,1111122 
SCCF RECON,ioos:station:SCCF:12:1,2012-02-09T06:00:00Z,26.4966,-82.1479,2.512,-9999.0,1111122 
SCCF RECON,ioos:station:SCCF:12:1,2012-02-09T07:00:00Z,26.4966,-82.1479,2.502,-9999.0,1111122 
SCCF RECON,ioos:station:SCCF:12:1,2012-02-09T08:00:00Z,26.4966,-82.1479,2.415,-9999.0,1111122 
SCCF RECON,ioos:station:SCCF:12:1,2012-02-09T09:00:00Z,26.4966,-82.1479,2.272,-9999.0,1111122 
SCCF RECON,ioos:station:SCCF:12:1,2012-02-09T10:00:00Z,26.4966,-82.1479,2.127,-9999.0,1111122 
SCCF RECON,ioos:station:SCCF:12:1,2012-02-09T11:00:00Z,26.4966,-82.1479,1.986,-9999.0,1111122 
SCCF RECON,ioos:station:SCCF:12:1,2012-02-09T12:00:00Z,26.4966,-82.1479,1.876,-9999.0,1111122 
SCCF RECON,ioos:station:SCCF:12:1,2012-02-09T13:00:00Z,26.4966,-82.1479,1.781,-9999.0,1111122 
SCCF RECON,ioos:station:SCCF:12:1,2012-02-09T14:00:00Z,26.4966,-82.1479,1.731,-9999.0,1111122 
SCCF RECON,ioos:station:SCCF:12:1,2012-02-09T15:00:00Z,26.4966,-82.1479,1.817,-9999.0,1111122 
SCCF RECON,ioos:station:SCCF:12:1,2012-02-09T16:00:00Z,26.4966,-82.1479,2.023,-9999.0,1111122 
SCCF RECON,ioos:station:SCCF:12:1,2012-02-09T17:00:00Z,26.4966,-82.1479,2.179,-9999.0,1111122 
SCCF RECON,ioos:station:SCCF:12:1,2012-02-09T18:00:00Z,26.4966,-82.1479,2.294,-9999.0,1111122 
SCCF RECON,ioos:station:SCCF:12:1,2012-02-09T19:00:00Z,26.4966,-82.1479,2.369,-9999.0,1111122 
SCCF RECON,ioos:station:SCCF:12:1,2012-02-09T20:00:00Z,26.4966,-82.1479,2.386,-9999.0,1111122 
SCCF RECON,ioos:station:SCCF:12:1,2012-02-09T21:00:00Z,26.4966,-82.1479,2.32,-9999.0,1111122 
SCCF RECON,ioos:station:SCCF:12:1,2012-02-09T22:00:00Z,26.4966,-82.1479,2.199,-9999.0,1111122 
SCCF RECON,ioos:station:SCCF:12:1,2012-02-09T23:00:00Z,26.4966,-82.1479,2.08,-9999.0,1111122 
SCCF RECON,ioos:station:SCCF:12:1,2012-02-10T00:00:00Z,26.4966,-82.1479,2.009,-9999.0,1111122 
SCCF RECON,ioos:station:SCCF:12:1,2012-02-10T01:00:00Z,26.4966,-82.1479,1.95,-9999.0,1111122 
SCCF RECON,ioos:station:SCCF:12:1,2012-02-10T02:00:00Z,26.4966,-82.1479,1.97,-9999.0,1111122 
SCCF RECON,ioos:station:SCCF:12:1,2012-02-10T03:00:00Z,26.4966,-82.1479,2.064,-9999.0,1111122 
SCCF RECON,ioos:station:SCCF:12:1,2012-02-10T04:00:00Z,26.4966,-82.1479,2.225,-9999.0,1111122 
SCCF RECON,ioos:station:SCCF:12:1,2012-02-10T05:00:00Z,26.4966,-82.1479,2.37,-9999.0,1111122 
SCCF RECON,ioos:station:SCCF:12:1,2012-02-10T06:00:00Z,26.4966,-82.1479,2.46,-9999.0,1111122 
SCCF RECON,ioos:station:SCCF:12:1,2012-02-10T07:00:00Z,26.4966,-82.1479,2.509,-9999.0,1111122 
SCCF RECON,ioos:station:SCCF:12:1,2012-02-10T08:00:00Z,26.4966,-82.1479,2.47,-9999.0,1111122 
SCCF RECON,ioos:station:SCCF:12:1,2012-02-10T09:00:00Z,26.4966,-82.1479,2.37,-9999.0,1111122 
SCCF RECON,ioos:station:SCCF:12:1,2012-02-10T10:00:00Z,26.4966,-82.1479,2.246,-9999.0,1111122 
SCCF RECON,ioos:station:SCCF:12:1,2012-02-10T11:00:00Z,26.4966,-82.1479,2.13,-9999.0,1111122 
SCCF RECON,ioos:station:SCCF:12:1,2012-02-10T12:00:00Z,26.4966,-82.1479,2.02,-9999.0,1111122 
SCCF RECON,ioos:station:SCCF:12:1,2012-02-10T13:00:00Z,26.4966,-82.1479,1.93,-9999.0,1111122 
SCCF RECON,ioos:station:SCCF:12:1,2012-02-10T14:00:00Z,26.4966,-82.1479,1.86,-9999.0,1111122 
SCCF RECON,ioos:station:SCCF:12:1,2012-02-10T15:00:00Z,26.4966,-82.1479,1.88,-9999.0,1111122 
SCCF RECON,ioos:station:SCCF:12:1,2012-02-10T16:00:00Z,26.4966,-82.1479,2.045,-9999.0,1111122 
SCCF RECON,ioos:station:SCCF:12:1,2012-02-10T17:00:00Z,26.4966,-82.1479,2.224,-9999.0,1111122 
SCCF RECON,ioos:station:SCCF:12:1,2012-02-10T18:00:00Z,26.4966,-82.1479,2.36,-9999.0,1111122 
SCCF RECON,ioos:station:SCCF:12:1,2012-02-10T19:00:00Z,26.4966,-82.1479,2.458,-9999.0,1111122 
SCCF RECON,ioos:station:SCCF:12:1,2012-02-10T20:00:00Z,26.4966,-82.1479,2.473,-9999.0,1111122 
SCCF RECON,ioos:station:SCCF:12:1,2012-02-10T21:00:00Z,26.4966,-82.1479,2.415,-9999.0,1111122 
SCCF RECON,ioos:station:SCCF:12:1,2012-02-10T22:00:00Z,26.4966,-82.1479,2.306,-9999.0,1111122 
SCCF RECON,ioos:station:SCCF:12:1,2012-02-10T23:00:00Z,26.4966,-82.1479,2.17,-9999.0,1111122 
SCCF RECON,ioos:station:SCCF:12:1,2012-02-11T00:00:00Z,26.4966,-82.1479,2.077,-9999.0,1111122 
SCCF RECON,ioos:station:SCCF:12:1,2012-02-11T01:00:00Z,26.4966,-82.1479,2.007,-9999.0,1111122 
SCCF RECON,ioos:station:SCCF:12:1,2012-02-11T02:00:00Z,26.4966,-82.1479,1.957,-9999.0,1111122 
SCCF RECON,ioos:station:SCCF:12:1,2012-02-11T03:00:00Z,26.4966,-82.1479,1.97,-9999.0,1111122 
SCCF RECON,ioos:station:SCCF:12:1,2012-02-11T04:00:00Z,26.4966,-82.1479,2.057,-9999.0,1111122 
SCCF RECON,ioos:station:SCCF:12:1,2012-02-11T05:00:00Z,26.4966,-82.1479,2.227,-9999.0,1111122 
SCCF RECON,ioos:station:SCCF:12:1,2012-02-11T06:00:00Z,26.4966,-82.1479,2.376,-9999.0,1111122 
SCCF RECON,ioos:station:SCCF:12:1,2012-02-11T07:00:00Z,26.4966,-82.1479,2.388,-9999.0,1111122 
SCCF RECON,ioos:station:SCCF:12:1,2012-02-11T08:00:00Z,26.4966,-82.1479,2.41,-9999.0,1111122 
SCCF RECON,ioos:station:SCCF:12:1,2012-02-11T09:00:00Z,26.4966,-82.1479,2.405,-9999.0,1111122 
SCCF RECON,ioos:station:SCCF:12:1,2012-02-11T10:00:00Z,26.4966,-82.1479,2.325,-9999.0,1111122 
SCCF RECON,ioos:station:SCCF:12:1,2012-02-11T11:00:00Z,26.4966,-82.1479,2.203,-9999.0,1111122 